When you browse on this site, cookies collect data to enhance your experience and personalize the content and advertising you see.
Visit our Privacy Policy to learn more. By continuing to use the site, you agree to this use of cookies and data.
  • In France
  • List of Countries
  • For 7 days
  • Water Temperature
  • Satellite Maps
  • Weather Map
  • Weather Widgets
  • user-avatar
    Login

    Hourly Weather Canberra

    Today, 26 June, Wednesday

    Time Temperature Precipitation Wind Pressure Humidity
    00:00 +6°C° 0 mm 1 mps 721 mmHg 94%
    01:00 +6°C° 0 mm 1 mps 721 mmHg 94%
    02:00 +6°C° 0 mm 1 mps 721 mmHg 94%
    03:00 +6°C° 0 mm 1 mps 721 mmHg 94%
    04:00 +6°C° 0 mm 1 mps 721 mmHg 94%
    05:00 +6°C° 0 mm 1 mps 721 mmHg 93%
    06:00 +6°C° 0 mm 1 mps 722 mmHg 92%
    07:00 +6°C° 0 mm 1 mps 722 mmHg 92%
    08:00 +8°C° 0 mm 1 mps 722 mmHg 85%
    09:00 +10°C° 0 mm 1 mps 722 mmHg 78%
    10:00 +12°C° 0 mm 1 mps 723 mmHg 71%
    11:00 +13°C° 0 mm 1 mps 722 mmHg 66%
    12:00 +14°C° 0 mm 1 mps 721 mmHg 60%
    13:00 +15°C° 0 mm 1 mps 721 mmHg 55%
    14:00 +14°C° 0 mm 1 mps 721 mmHg 59%
    15:00 +14°C° 0 mm 1 mps 721 mmHg 63%
    16:00 +13°C° 0 mm 1 mps 721 mmHg 69%
    17:00 +11°C° 0 mm 1 mps 721 mmHg 77%
    18:00 +9°C° 0 mm 1 mps 721 mmHg 84%
    19:00 +7°C° 0 mm 1 mps 721 mmHg 92%
    20:00 +7°C° 0 mm 1 mps 721 mmHg 93%
    21:00 +7°C° 0 mm 1 mps 721 mmHg 94%
    22:00 +6°C° 0 mm 1 mps 721 mmHg 95%
    23:00 +6°C° 0 mm 1 mps 721 mmHg 95%

    Tomorrow, 27 June, Thursday

    Time Temperature Precipitation Wind Pressure Humidity
    00:00 +5°C° 0 mm 1 mps 721 mmHg 95%
    01:00 +5°C° 0 mm 1 mps 721 mmHg 95%
    02:00 +5°C° 0 mm 1 mps 721 mmHg 95%
    03:00 +5°C° 0 mm 1 mps 721 mmHg 94%
    04:00 +5°C° 0 mm 1 mps 721 mmHg 94%
    05:00 +6°C° 0 mm 1 mps 721 mmHg 93%
    06:00 +7°C° 0 mm 1 mps 721 mmHg 93%
    07:00 +7°C° 0 mm 0 mps 721 mmHg 92%
    08:00 +9°C° 0 mm 1 mps 722 mmHg 89%
    09:00 +10°C° 0 mm 1 mps 722 mmHg 85%
    10:00 +12°C° 0 mm 1 mps 722 mmHg 81%
    11:00 +13°C° 0 mm 1 mps 721 mmHg 75%
    12:00 +14°C° 0 mm 1 mps 721 mmHg 69%
    13:00 +16°C° 0 mm 1 mps 720 mmHg 63%
    14:00 +15°C° 0 mm 1 mps 720 mmHg 66%
    15:00 +15°C° 0 mm 1 mps 720 mmHg 69%
    16:00 +14°C° 0 mm 1 mps 719 mmHg 72%
    17:00 +12°C° 0 mm 1 mps 719 mmHg 79%
    18:00 +11°C° 0 mm 1 mps 720 mmHg 86%
    19:00 +9°C° 0 mm 1 mps 720 mmHg 93%
    20:00 +8°C° 0 mm 1 mps 720 mmHg 94%
    21:00 +8°C° 0 mm 1 mps 720 mmHg 95%
    22:00 +7°C° 0 mm 1 mps 720 mmHg 96%
    23:00 +6°C° 0 mm 0 mps 720 mmHg 96%

    Day after tomorrow, 28 June, Friday

    Time Temperature Precipitation Wind Pressure Humidity
    00:00 +6°C° 0 mm 0 mps 720 mmHg 96%
    01:00 +5°C° 0 mm 0 mps 720 mmHg 97%
    02:00 +5°C° 0 mm 0 mps 719 mmHg 97%
    03:00 +4°C° 0 mm 0 mps 719 mmHg 96%
    04:00 +4°C° 0 mm 0 mps 719 mmHg 96%
    05:00 +4°C° 0 mm 0 mps 719 mmHg 96%
    06:00 +4°C° 0 mm 0 mps 719 mmHg 96%
    07:00 +4°C° 0 mm 0 mps 719 mmHg 95%
    08:00 +6°C° 0 mm 0 mps 719 mmHg 88%
    09:00 +9°C° 0 mm 1 mps 719 mmHg 81%
    10:00 +11°C° 0 mm 1 mps 719 mmHg 74%
    11:00 +12°C° 0 mm 2 mps 719 mmHg 68%
    12:00 +14°C° 0 mm 2 mps 718 mmHg 62%
    13:00 +14°C° 0 mm 3 mps 718 mmHg 56%
    14:00 +14°C° 0 mm 3 mps 717 mmHg 60%
    15:00 +14°C° 0 mm 2 mps 717 mmHg 63%
    16:00 +14°C° 0 mm 2 mps 716 mmHg 67%
    17:00 +12°C° 0 mm 1 mps 716 mmHg 74%
    18:00 +10°C° 0 mm 1 mps 716 mmHg 81%
    19:00 +8°C° 0 mm 1 mps 716 mmHg 89%
    20:00 +7°C° 0 mm 0 mps 716 mmHg 90%
    21:00 +6°C° 0 mm 0 mps 716 mmHg 90%
    22:00 +6°C° 0 mm 0 mps 716 mmHg 91%
    23:00 +5°C° 0 mm 0 mps 716 mmHg 92%

    29 June, Saturday

    Time Temperature Precipitation Wind Pressure Humidity
    00:00 +5°C° 0 mm 0 mps 716 mmHg 92%
    01:00 +5°C° 0 mm 0 mps 715 mmHg 93%
    02:00 +5°C° 0 mm 0 mps 715 mmHg 93%
    03:00 +4°C° 0 mm 0 mps 714 mmHg 93%
    04:00 +4°C° 0 mm 0 mps 714 mmHg 93%
    05:00 +4°C° 0 mm 0 mps 714 mmHg 93%
    06:00 +4°C° 0 mm 0 mps 714 mmHg 93%
    07:00 +4°C° 0 mm 0 mps 714 mmHg 93%
    08:00 +7°C° 0 mm 1 mps 714 mmHg 86%
    09:00 +8°C° 0 mm 2 mps 714 mmHg 78%
    10:00 +11°C° 0 mm 3 mps 714 mmHg 71%
    11:00 +11°C° 0 mm 4 mps 713 mmHg 69%
    12:00 +12°C° 0 mm 5 mps 712 mmHg 67%
    13:00 +13°C° 0 mm 6 mps 711 mmHg 65%
    14:00 +13°C° 0 mm 5 mps 710 mmHg 65%
    15:00 +13°C° 0 mm 5 mps 709 mmHg 66%
    16:00 +13°C° 0 mm 5 mps 709 mmHg 66%
    17:00 +12°C° 0 mm 5 mps 708 mmHg 67%
    18:00 +10°C° 0 mm 5 mps 708 mmHg 68%
    19:00 +9°C° 0 mm 5 mps 707 mmHg 69%
    20:00 +8°C° 1.9 mm 6 mps 707 mmHg 77%
    21:00 +6°C° 1.9 mm 7 mps 707 mmHg 85%
    22:00 +5°C° 1.9 mm 8 mps 707 mmHg 92%
    23:00 +4°C° 1.6 mm 7 mps 707 mmHg 93%

    30 June, Sunday

    Time Temperature Precipitation Wind Pressure Humidity
    00:00 +3°C° 1.6 mm 5 mps 707 mmHg 95%
    01:00 +3°C° 1.6 mm 4 mps 707 mmHg 96%
    02:00 +2°C° 0.1 mm 5 mps 707 mmHg 94%
    03:00 +3°C° 0.1 mm 6 mps 707 mmHg 93%
    04:00 +3°C° 0.1 mm 6 mps 707 mmHg 91%
    05:00 +2°C° 0 mm 6 mps 708 mmHg 91%
    06:00 +2°C° 0 mm 6 mps 708 mmHg 92%
    07:00 +2°C° 0 mm 5 mps 709 mmHg 92%
    08:00 +2°C° 0 mm 5 mps 709 mmHg 89%
    09:00 +3°C° 0 mm 5 mps 710 mmHg 85%
    10:00 +4°C° 0 mm 6 mps 710 mmHg 82%
    11:00 +5°C° 0 mm 5 mps 710 mmHg 79%
    12:00 +6°C° 0 mm 5 mps 710 mmHg 77%
    13:00 +6°C° 0 mm 5 mps 710 mmHg 74%
    14:00 +6°C° 0 mm 5 mps 710 mmHg 71%
    15:00 +6°C° 0 mm 5 mps 710 mmHg 68%
    16:00 +6°C° 0 mm 4 mps 710 mmHg 65%
    17:00 +5°C° 0 mm 4 mps 711 mmHg 73%
    18:00 +3°C° 0 mm 3 mps 711 mmHg 81%
    19:00 +2°C° 0 mm 3 mps 712 mmHg 89%
    20:00 +1°C° 0 mm 3 mps 712 mmHg 91%
    21:00 +1°C° 0 mm 2 mps 713 mmHg 92%
    22:00 +1°C° 0 mm 2 mps 713 mmHg 94%
    23:00 -1°C° 0 mm 2 mps 713 mmHg 94%

    1 July, Monday

    Time Temperature Precipitation Wind Pressure Humidity
    00:00 +1°C° 0 mm 1 mps 713 mmHg 94%
    01:00 0°C° 0 mm 1 mps 713 mmHg 95%
    02:00 0°C° 0 mm 1 mps 713 mmHg 94%
    03:00 0°C° 0 mm 1 mps 713 mmHg 94%
    04:00 0°C° 0 mm 1 mps 712 mmHg 93%
    05:00 0°C° 0 mm 1 mps 713 mmHg 93%
    06:00 0°C° 0 mm 1 mps 713 mmHg 92%
    07:00 -2°C° 0 mm 0 mps 714 mmHg 92%
    08:00 +2°C° 0 mm 1 mps 714 mmHg 83%
    09:00 +4°C° 0 mm 1 mps 714 mmHg 75%
    10:00 +6°C° 0 mm 1 mps 714 mmHg 66%
    11:00 +6°C° 0 mm 2 mps 713 mmHg 62%
    12:00 +8°C° 0 mm 2 mps 712 mmHg 58%
    13:00 +9°C° 0 mm 3 mps 712 mmHg 55%
    14:00 +9°C° 0 mm 3 mps 712 mmHg 59%
    15:00 +8°C° 0 mm 3 mps 711 mmHg 63%
    16:00 +8°C° 0 mm 3 mps 711 mmHg 67%
    17:00 +5°C° 0 mm 3 mps 711 mmHg 75%
    18:00 +4°C° 0 mm 2 mps 711 mmHg 84%
    19:00 +2°C° 0 mm 2 mps 711 mmHg 92%
    20:00 +2°C° 0 mm 2 mps 711 mmHg 93%
    21:00 +2°C° 0 mm 2 mps 711 mmHg 93%
    22:00 +1°C° 0 mm 2 mps 711 mmHg 93%
    23:00 +1°C° 0 mm 2 mps 711 mmHg 93%
    Show more